sat.trackr.live / text

‹ back to catalog

ADRAS-J

NORAD 58992 · 2024-034A

PAYLOAD ACTIVE UNKNOWN

§ Identity

Operator
Country
JPN
Launch date
2024-02-18
Launch site
RLLB
Launch vehicle
Mass (kg)
RCS (m²)

External: N2YO · Heavens-Above · Gunter

§ Orbital elements

Epoch: 2026-09-22T21:04:11.387712Z

Period
91.84 min
Inclination
98.2066°
Eccentricity
0.0103109
Mean motion
15.68015615 rev/d
Perigee alt
295.1 km
Apogee alt
434.1 km
Semi-major
6,742.7 km
B*
1.1130e-3
RAAN
311.6273°
Arg perigee
119.3440°
Mean anomaly
241.8167°
Rev number
14,278

§ Raw data

ADRAS-J1 58992U 24034A   26265.87790958  .00165583  10326-4  11130-2 0  99922 58992  98.2066 311.6273 0103109 119.3440 241.8167 15.68015615142784

JSON: /api/v1/satellites/58992 · /tle

For live sub-satellite position, see the globe view (requires WebGL).

§ Visibility from observer

Set your observer location to see the next 7 days of passes ≥ 10°. The values pass through the URL so the page stays shareable.

No JS? Fill the form by hand. The geolocation button needs JavaScript.